OBJECT N, 57178

Orbit data source: Space-Track

You're viewing an Uncataloged Satellite

Recently launched and/or uncataloged satellites may have evolving metadata. Metadata may include but not limited to: Owner, Maufacturer, Bus, Motor, and Mission.

OBJECT N, 57178 is a satellite in SSO that was launched on Tue, 27 Jun 2023 UTC via a SOYUZ-2-1B launch vehicle from the Vostochny Cosmodrome (VOSTO). Unknown objects in Earth's orbit typically refer to objects detected orbiting the Earth but have not yet been identified or cataloged. These objects could be anything from previously untracked satellites, spent rocket stages, debris from satellite collisions, or even natural meteoroids temporarily captured by Earth's gravity.

Loading next visibility...
Identifier
57178, 2023-091N
Orbit
SSO
Country
Flag of TBDTBD
Related business
Flag of RUNational Research University Higher School of Economics (RU)
Manufacturer
Sputniks
Mission
Operational Amateur Imaging/Com
Bus & Motor
CUBESAT 3U, Unknown motor
Mass
3.39 kg wet, 3.39 kg dry
Launch date (UTC)
2023-06-27 (2 years ago)
Launch vehicle
SOYUZ-2-1B
Launch site
Vostochny Cosmodrome (VOSTO)
Object type
Unknown
Shape & HBR
Box, 0.1 m
Radar Cross Section
0.035 m², Small (<0.1 m²)

Expand to show TLE details & history
Last TLE update: 8 hours ago

TLE from 8 hours ago
0 OBJECT N
1 57178U 23091N   25304.29196589  .00017530  00000-0  71980-3 0  9990
2 57178  97.5439   2.6865 0012766 174.0317 186.1075 15.24200692129471
Epoch: 2025-10-31T07:00Z
TLE epoch observation values (Epoch: 2025-10-31T07:00:25.852Z)
Latitude
-0°
Longitude
-142.25971°
Altitude
505.003 km
Speed
7.607 km/s
True Right ascension
00h 10m 44s
True Declination
0° 00' 00"
Sunlit
Object was in full shadow at epoch
Visualization orbit readout
Latitude
Unknown
Longitude
Unknown
Altitude
Unknown
Speed
Unknown
Apparent Right ascension
Unknown
Apparent Declination
Unknown
Sunlit
N/A
Visualization observer readout
Local Sidereal Time
10:25:34
Azimuth
Unknown
Elevation
Unknown
Doppler factor
Unknown
Orbital elements
Apogee altitude
498.921 km
Perigee altitude
481.385 km
Semi-major axis
6,868.29 km
Eccentricity
0.00128
Inclination
97.5439°
RAAN
2.6865°
Arg. of periapsis
174.0317°
True anomaly
186.09196°
Mean anomaly
186.1075°
Eccentric anomaly
186.09973°
Mean motion
3.81303 °/min
Orbital period
94.41 mins
BSTAR
0.0007198
Loading maneuver chart data...
Computing Atmospheric mass density...
Loading historical data...
Loading historical data...
Loading historical data...
Loading historical data...
Loading historical data...
Loading historical data...
Loading historical data...

Documentation

Showing up to 5 results
|